sat.trackr.live / text

‹ back to catalog

KUIPER-00564

NORAD 69625 · 2026-140AK

PAYLOAD ACTIVE UNKNOWN

§ Identity

Operator
Country
US
Launch date
2026-06-17
Launch site
FRGUI
Launch vehicle
Mass (kg)
RCS (m²)

External: N2YO · Heavens-Above · Gunter

§ Orbital elements

Epoch: 2026-09-18T04:58:20.953344Z

Period
97.52 min
Inclination
51.8983°
Eccentricity
0.0002494
Mean motion
14.76595908 rev/d
Perigee alt
638.3 km
Apogee alt
641.8 km
Semi-major
7,018.2 km
B*
5.1350e-4
RAAN
319.2870°
Arg perigee
115.6463°
Mean anomaly
244.4756°
Rev number
1,540

§ Raw data

KUIPER-005641 69625U 26140AK  26261.20718696  .00003404  00000+0  51350-3 0  99942 69625  51.8983 319.2870 0002494 115.6463 244.4756 14.76595908 15405

JSON: /api/v1/satellites/69625 · /tle

For live sub-satellite position, see the globe view (requires WebGL).

§ Visibility from observer

Set your observer location to see the next 7 days of passes ≥ 10°. The values pass through the URL so the page stays shareable.

No JS? Fill the form by hand. The geolocation button needs JavaScript.